Weather History for KCOD - April, 2013

Change the Weather History Date:

Saturday, April 20, 2013

  Actual Average Record
Temperature  
Mean Temperature 42 °F -  
Max Temperature 53 °F 56 °F 82 °F (1980)
Min Temperature 32 °F 31 °F 9 °F (1966)
Degree Days  
Heating Degree Days 22    
Moisture  
Dew Point 28 °F    
Average Humidity 55    
Maximum Humidity 81    
Minimum Humidity 33    
Precipitation  
Precipitation 0.00 in - - ()
Sea Level Pressure  
Sea Level Pressure 29.87 in    
Wind  
Wind Speed 5 mph (West)    
Max Wind Speed 20 mph    
Max Gust Speed 31 mph    
Visibility 10 miles    
Events      
Averages and records for this station are not official NWS values.
T = Trace of Precipitation, MM = Missing Value Source: NWS Daily Summary

Daily Weather History Graph

Daily Weather History Graph

Search for Another Location

Airport or City:

Trip Planner

Search our weather history database for the weather conditions in past years. The results will help you decide how hot, cold, wet, or windy it might be!

Date:

Astronomy

Apr. 20, 2013 Rise Set
Actual Time 6:23 AM MDT 8:07 PM MDT
Civil Twilight 5:52 AM MDT 8:38 PM MDT
Nautical Twilight 5:14 AM MDT 9:16 PM MDT
Astronomical Twilight 4:34 AM MDT 9:57 PM MDT
Moon 2:42 PM MDT (4/20) 3:27 AM MDT (4/20)
Length of Visible Light 14h 46m
Length of Day
13h 44m
Waxing Gibbous, 71% of the Moon is Illuminated
Apr 20
Waxing Gibbous
Apr 25
Full
May 2
Last Quarter
May 9
New
May 17
First Quarter

Hourly Weather History & Observations

Time (MDT) Temp. Windchill Dew Point Humidity Pressure Visibility Wind Dir Wind Speed Gust Speed Precip Events Conditions
12:35 AM 39.2 °F - 26.6 °F 61% 29.83 in 10.0 mi Calm Calm - N/A   Partly Cloudy
12:55 AM 39.2 °F - 26.6 °F 61% 29.83 in 10.0 mi Calm Calm - N/A   Mostly Cloudy
1:15 AM 37.4 °F - 28.4 °F 70% 29.84 in 10.0 mi Calm Calm - N/A   Overcast
1:35 AM 39.2 °F 35.9 °F 28.4 °F 65% 29.84 in 10.0 mi WSW 4.6 mph - N/A   Overcast
1:55 AM 39.2 °F 34.2 °F 28.4 °F 65% 29.83 in 10.0 mi North 6.9 mph - N/A   Mostly Cloudy
2:15 AM 39.2 °F 35.9 °F 28.4 °F 65% 29.84 in 10.0 mi East 4.6 mph - N/A   Mostly Cloudy
2:35 AM 39.2 °F 34.2 °F 28.4 °F 65% 29.84 in 10.0 mi ESE 6.9 mph - N/A   Mostly Cloudy
2:55 AM 39.2 °F 37.0 °F 28.4 °F 65% 29.84 in 10.0 mi ESE 3.5 mph - N/A   Mostly Cloudy
3:15 AM 37.4 °F 34.9 °F 28.4 °F 70% 29.84 in 10.0 mi SSW 3.5 mph - N/A   Partly Cloudy
3:35 AM 35.6 °F 31.7 °F 28.4 °F 75% 29.84 in 10.0 mi SSW 4.6 mph - N/A   Partly Cloudy
3:55 AM 35.6 °F - 28.4 °F 75% 29.84 in 10.0 mi Calm Calm - N/A   Partly Cloudy
4:15 AM 37.4 °F 33.8 °F 30.2 °F 75% 29.84 in 10.0 mi SSE 4.6 mph - N/A   Scattered Clouds
4:35 AM 35.6 °F - 28.4 °F 75% 29.85 in 10.0 mi Calm Calm - N/A   Scattered Clouds
4:55 AM 35.6 °F - 28.4 °F 75% 29.84 in 10.0 mi Calm Calm - N/A   Partly Cloudy
5:16 AM 33.8 °F - 26.6 °F 75% 29.85 in 10.0 mi Calm Calm - N/A   Clear
5:35 AM 33.8 °F - 26.6 °F 75% 29.85 in 10.0 mi Calm Calm - N/A   Clear
5:56 AM 33.8 °F 28.6 °F 26.6 °F 75% 29.85 in 10.0 mi South 5.8 mph - N/A   Clear
6:15 AM 32.0 °F - 26.6 °F 80% 29.86 in 10.0 mi Calm Calm - N/A   Clear
6:35 AM 32.0 °F 28.7 °F 26.6 °F 80% 29.86 in 10.0 mi NNE 3.5 mph - N/A   Clear
6:55 AM 33.8 °F 30.8 °F 28.4 °F 81% 29.86 in 10.0 mi NW 3.5 mph - N/A   Clear
7:15 AM 33.8 °F - 28.4 °F 81% 29.87 in 10.0 mi Calm Calm - N/A   Clear
7:35 AM 35.6 °F 31.7 °F 28.4 °F 75% 29.86 in 10.0 mi SSE 4.6 mph - N/A   Partly Cloudy
7:55 AM 39.2 °F - 30.2 °F 70% 29.87 in 10.0 mi Calm Calm - N/A   Partly Cloudy
8:15 AM 39.2 °F - 30.2 °F 70% 29.87 in 10.0 mi Calm Calm - N/A   Clear
8:35 AM 44.6 °F - 28.4 °F 53% 29.88 in 10.0 mi Calm Calm - N/A   Partly Cloudy
8:55 AM 46.4 °F 42.4 °F 28.4 °F 50% 29.88 in 10.0 mi West 8.1 mph - N/A   Mostly Cloudy
9:15 AM 46.4 °F 41.1 °F 26.6 °F 46% 29.88 in 10.0 mi WSW 11.5 mph 16.1 mph N/A   Overcast
9:35 AM 46.4 °F 41.1 °F 24.8 °F 43% 29.88 in 10.0 mi WSW 11.5 mph 21.9 mph N/A   Overcast
10:15 AM 48.2 °F - 24.8 °F 40% 29.88 in 10.0 mi West 13.8 mph 17.3 mph N/A   Overcast
10:35 AM 48.2 °F - 24.8 °F 40% 29.88 in 10.0 mi West 11.5 mph - N/A   Overcast
10:55 AM 50.0 °F - 24.8 °F 37% 29.88 in 10.0 mi West 15.0 mph 21.9 mph N/A   Mostly Cloudy
11:35 AM 51.8 °F - 24.8 °F 35% 29.87 in 10.0 mi West 9.2 mph - N/A   Scattered Clouds
11:55 AM 53.6 °F - 24.8 °F 33% 29.87 in 10.0 mi West 11.5 mph 16.1 mph N/A   Clear
12:15 PM 51.8 °F - 24.8 °F 35% 29.86 in 10.0 mi SW 9.2 mph - N/A   Mostly Cloudy
12:35 PM 51.8 °F - 26.6 °F 38% 29.86 in 10.0 mi WSW 6.9 mph 19.6 mph N/A   Mostly Cloudy
12:55 PM 51.8 °F - 28.4 °F 41% 29.86 in 10.0 mi West 13.8 mph - N/A   Mostly Cloudy
1:15 PM 51.8 °F - 26.6 °F 38% 29.86 in 10.0 mi West 5.8 mph 18.4 mph N/A   Overcast
1:35 PM 51.8 °F - 26.6 °F 38% 29.86 in 10.0 mi East 3.5 mph 18.4 mph N/A   Mostly Cloudy
1:55 PM 50.0 °F - 28.4 °F 43% 29.86 in 10.0 mi North 5.8 mph - N/A   Mostly Cloudy
2:15 PM 50.0 °F - 30.2 °F 47% 29.87 in 10.0 mi NW 12.7 mph - N/A   Overcast
2:35 PM 51.8 °F - 32.0 °F 47% 29.86 in 10.0 mi Calm Calm - N/A   Overcast
3:35 PM 53.6 °F - 28.4 °F 38% 29.86 in 10.0 mi NNW 5.8 mph - N/A   Mostly Cloudy
3:55 PM 51.8 °F - 28.4 °F 41% 29.86 in 10.0 mi NW 19.6 mph 31.1 mph N/A   Overcast
4:35 PM 53.6 °F - 28.4 °F 38% 29.85 in 10.0 mi NW 15.0 mph 18.4 mph N/A   Mostly Cloudy
4:55 PM 53.6 °F - 26.6 °F 35% 29.84 in 10.0 mi NNW 17.3 mph 23.0 mph N/A   Partly Cloudy
5:15 PM 53.6 °F - 24.8 °F 33% 29.85 in 10.0 mi NW 16.1 mph 25.3 mph N/A   Mostly Cloudy
5:35 PM 51.8 °F - 28.4 °F 41% 29.86 in 10.0 mi NW 13.8 mph 26.5 mph N/A   Overcast
6:55 PM 51.8 °F - 26.6 °F 38% 29.88 in 10.0 mi WNW 6.9 mph - N/A   Overcast
7:15 PM 48.2 °F - 28.4 °F 46% 29.88 in 10.0 mi West 11.5 mph 19.6 mph N/A   Mostly Cloudy
7:35 PM 48.2 °F - 28.4 °F 46% 29.89 in 10.0 mi WSW 10.4 mph 18.4 mph N/A   Overcast
7:55 PM 46.4 °F 42.4 °F 28.4 °F 50% 29.89 in 10.0 mi West 8.1 mph - N/A   Mostly Cloudy
8:15 PM 46.4 °F 43.5 °F 28.4 °F 50% 29.90 in 10.0 mi West 5.8 mph - N/A   Scattered Clouds
8:35 PM 46.4 °F 42.9 °F 28.4 °F 50% 29.91 in 10.0 mi West 6.9 mph - N/A   Mostly Cloudy
8:55 PM 46.4 °F 41.9 °F 28.4 °F 50% 29.92 in 10.0 mi West 9.2 mph 16.1 mph N/A   Overcast
9:15 PM 46.4 °F 41.5 °F 28.4 °F 50% 29.92 in 10.0 mi West 10.4 mph 16.1 mph N/A   Scattered Clouds
9:35 PM 44.6 °F 40.7 °F 28.4 °F 53% 29.93 in 10.0 mi WSW 6.9 mph - N/A   Clear
10:15 PM 46.4 °F 42.9 °F 28.4 °F 50% 29.94 in 10.0 mi WSW 6.9 mph - N/A   Partly Cloudy
10:35 PM 44.6 °F 37.8 °F 28.4 °F 53% 29.95 in 10.0 mi SW 15.0 mph - N/A   Scattered Clouds
10:55 PM 44.6 °F 40.7 °F 28.4 °F 53% 29.96 in 10.0 mi West 6.9 mph - N/A   Overcast
11:35 PM 42.8 °F 41.1 °F 28.4 °F 57% 29.96 in 10.0 mi West 3.5 mph - N/A   Overcast
11:55 PM 42.8 °F 41.1 °F 28.4 °F 57% 29.96 in 10.0 mi NNW 3.5 mph - N/A   Mostly Cloudy